Regional Weather Roundup
Issued by NWS Columbia, SC

Home | Current Version | Previous Version | Text Only | Print | Product List | Glossary On
Versions: 1 2 3 4 5 6 7 8 9 10 11 12 13 14 15 16 17 18 19 20 21 22 23 24 25 26 27 28 29 30 31 32 33 34 35 36 37 38 39 40 41 42 43 44 45 46 47 48 49 50
000
ASUS42 KCAE 020010
RWRCAE
REGIONAL WEATHER ROUNDUP
NATIONAL WEATHER SERVICE COLUMBIA SC
700 PM EST SUN FEB 01 2015

NOTE: "FAIR" INDICATES FEW OR NO CLOUDS BELOW 12,000 FEET WITH NO
SIGNIFICANT WEATHER AND/OR OBSTRUCTIONS TO VISIBILITY.

NOT ALL STATIONS ARE QUALITY CONTROLLED BY THE NATIONAL
WEATHER SERVICE. USE DATA WITH CAUTION...ESPECIALLY
DEWPOINT OBSERVATIONS.

SCZ001>056-GAZ040-063>065-077-020100-
...UPSTATE SOUTH CAROLINA...

CITY           SKY/WX    TMP DP  RH WIND       PRES   REMARKS
ANDERSON       LGT RAIN  47  46  97 NW10      29.95S
6HR MIN TEMP:  47; 6HR MAX TEMP:  59; 6HR PCP:  0.10;

LIBERTY        RAIN      45  45 100 MISG      29.95R
6HR MIN TEMP:  18; 6HR MAX TEMP:  56;

SPARTANBURG    LGT RAIN  52  52 100 CALM      29.93F
CLEMSON        HVY RAIN  47  43  86 CALM      29.96S FOG
6HR MIN TEMP:  47; 6HR MAX TEMP:  53; 6HR PCP:  0.13;

GREENVILLE     LGT RAIN  49  45  86 NW5       29.95F
6HR MIN TEMP:  48; 6HR MAX TEMP:  57; 6HR PCP:  0.05;

GREENWOOD      LGT RAIN  56  49  77 S8        29.96F
6HR MIN TEMP:  56; 6HR MAX TEMP:  62; 6HR PCP:  0.01;

GREER          LGT RAIN  48  46  93 CALM      29.93F
6HR MIN TEMP:  48; 6HR MAX TEMP:  57; 6HR PCP:  0.05;

ROCK HILL      LGT RAIN  57  42  57 S7        29.95F
6HR MIN TEMP:  54; 6HR MAX TEMP:  58; 6HR PCP: TRACE;

CHESTER        CLOUDY    61  41  48 S10       29.95F
LAURENS        RAIN      55  52  88 S10       29.94F


...CENTRAL SOUTH CAROLINA...

CITY           SKY/WX    TMP DP  RH WIND       PRES   REMARKS
COLUMBIA APT   CLOUDY    63  46  54 S10       29.99F
6HR MIN TEMP:  63; 6HR MAX TEMP:  67;

COLUMBIA OWENS CLOUDY    63  45  51 S7        30.01F
6HR MIN TEMP:  63; 6HR MAX TEMP:  66;

DARLINGTON     CLOUDY    61  43  51 S10       30.03S
6HR MIN TEMP:  59; 6HR MAX TEMP:  63;

FLORENCE       CLOUDY    60  45  57 S12       30.03F
6HR MIN TEMP:  60; 6HR MAX TEMP:  67;

MCENTIRE ANGB  CLOUDY    61  46  57 SE12      30.01F
6HR MIN TEMP:  61; 6HR MAX TEMP:  67;

ORANGEBURG     CLOUDY    62  46  55 S14       30.02F
6HR MIN TEMP:  62; 6HR MAX TEMP:  68;

SUMTER SHAW    CLOUDY    61  46  58 S8        30.01S
6HR MIN TEMP:  61; 6HR MAX TEMP:  66; 6HR PCP:  0.01;

NEWBERRY       CLOUDY    59  45  58 S8        29.98F
AIKEN          FAIR      61  45  55 SE6       30.02F
BARNWELL       FAIR      63  48  59 S7        30.01F
MANNING        FAIR      61  -6   6 S3        30.04F
CAMDEN         FAIR      59  45  58 S7        30.02S
LANCASTER      CLOUDY    57  41  54 SE9       29.98S
WINNSBORO      CLOUDY    59  45  58 S10       29.98F


...EASTERN AND COASTAL SOUTH CAROLINA...

CITY           SKY/WX    TMP DP  RH WIND       PRES   REMARKS
MYRTLE BEACH   MOCLDY    55  46  71 SE7         N/A
N MYRTLE BCH   CLOUDY    56  46  69 S3        30.08F
6HR MIN TEMP:  56; 6HR MAX TEMP:  60;

CONWAY         FAIR      57  46  67 CALM      30.07F
MARION         FAIR      59  45  58 S8        30.05F
HARTSVILLE     CLOUDY    61  50  67 S7        30.03R
FLORENCE       CLOUDY    60  45  57 S12       30.03F
6HR MIN TEMP:  60; 6HR MAX TEMP:  67;

DARLINGTON     CLOUDY    61  43  51 S10       30.03S
6HR MIN TEMP:  59; 6HR MAX TEMP:  63;

CHARLESTON APT CLOUDY    60  50  69 S7        30.07S
6HR MIN TEMP:  60; 6HR MAX TEMP:  67;

MOUNT PLEASANT MOCLDY    61  54  77 CALM      30.07S
BEAUFORT       PTCLDY    58  50  75 SE5       30.06S
6HR MIN TEMP:  58; 6HR MAX TEMP:  69;



...EASTERN GEORGIA...

CITY           SKY/WX    TMP DP  RH WIND       PRES   REMARKS
AUGUSTA BUSH F CLOUDY    64  45  49 S7        29.99F
6HR MIN TEMP:  64; 6HR MAX TEMP:  70;

AUGUSTA DANIEL CLOUDY    65  45  48 S10       29.98F
6HR MIN TEMP:  64; 6HR MAX TEMP:  68;

THOMSON        CLOUDY    65  50  59 S5        30.00F
6HR MIN TEMP:  65; 6HR MAX TEMP:  67;

WASHINGTON     FAIR      57  55  94 S6        29.94F
CLAXTON        FAIR      64  52  63 SE3       30.03S
SYLVANIA       CLOUDY    64  50  61 S5        30.03F
6HR MIN TEMP:  64; 6HR MAX TEMP:  70;

STATESBORO     CLOUDY    64  50  60 S7        30.02S
6HR MIN TEMP:  64; 6HR MAX TEMP:  71;

SAVANNAH       CLOUDY    61  49  64 S8        30.05F
6HR MIN TEMP:  60; 6HR MAX TEMP:  71;



...SOUTHERN NORTH CAROLINA...

CITY           SKY/WX    TMP DP  RH WIND       PRES   REMARKS
CHARLOTTE      CLOUDY    55  38  52 SE10      29.95F
6HR MIN TEMP:  52; 6HR MAX TEMP:  57;

MONROE         CLOUDY    55  40  56 VRB6      29.96F
6HR MIN TEMP:  54; 6HR MAX TEMP:  58;

WADESBORO      CLOUDY    54  38  54 SE7       30.00S
6HR MIN TEMP:  54; 6HR MAX TEMP:  58;

ROCKINGHAM       N/A     56  38  52 SE7       30.00F
6HR MIN TEMP:  52; 6HR MAX TEMP:  58;

RUTHERFORDTON  CLOUDY    46  44  93 N3        29.94F
6HR MIN TEMP:  46; 6HR MAX TEMP:  52; 6HR PCP:  0.01;

ASHEVILLE      RAIN      43  41  93 SE6       29.94S FOG
6HR MIN TEMP:  43; 6HR MAX TEMP:  48; 6HR PCP:  0.17;


$$


USA.gov is the U.S. government's official web portal to all federal, state and local government web resources and services.